RH
36 31 30 24 22 21 21 21 21 22 24 22 27 56 61 63 66 72 80 85 88 93 99 100 100 99 100 100 97 93 83 83 86 83 74 68 62 54 48 41 36 39 41 44
33 33 24 27 29 27 26 27 26 26 27 25 32 68 62 63 70 76 79 85 89 90 96 98 99 99 99 99 100 99 100 98 96 100 98 83 71 61 56 52 46 45 47 48
31 33 33 28 33 33 31 30 28 27 34 30 29 54 67 59 60 65 73 81 87 92 96 99 97 100 100 98 98 99 98 98 100 100 100 94 84 74 68 61 55 51 52 53
32 34 35 35 33 29 34 28 28 32 35 36 33 32 66 59 56 58 65 73 81 88 93 97 94 93 98 100 100 100 100 99 98 98 100 100 100 99 94 73 67 64 62 61
36 42 44 44 36 32 34 37 36 38 38 42 40 40 74 56 59 61 64 71 77 83 90 97 98 92 90 93 99 100 100 100 100 99 99 99 98 100 97 88 80 75 70 70
38 43 38 36 40 34 40 40 44 44 44 54 33 37 60 62 74 63 64 71 75 79 84 93 98 93 86 84 86 93 99 100 100 100 100 99 100 99 100 99 91 84 79 76
44 43 40 41 41 41 41 42 45 53 62 39 47 48 72 73 69 67 68 71 74 78 80 84 91 93 87 82 82 84 87 94 99 100 100 100 100 100 100 100 96 90 85 82
49 58 52 49 44 44 44 40 42 43 45 36 47 49 79 65 62 64 67 72 73 78 81 86 90 94 95 91 86 85 86 87 90 94 99 100 100 100 100 100 100 99 93 88
61 57 48 51 44 46 48 51 44 48 48 51 42 78 69 55 54 59 63 68 75 80 83 87 91 96 100 95 87 83 82 85 89 93 94 93 98 100 100 100 100 100 100 97
58 55 50 35 49 43 49 51 54 52 54 41 38 54 63 62 61 56 62 71 74 75 80 84 87 92 95 98 90 82 81 80 83 85 90 95 96 96 96 98 100 100 100 100
38 52 44 33 58 58 48 54 54 58 58 42 29 48 56 62 63 63 66 73 78 78 78 77 80 82 90 82 73 78 77 81 79 78 81 84 89 95 96 96 96 97 97 98
42 53 27 64 49 47 55 55 48 57 50 62 64 62 64 64 65 67 72 77 79 76 73 71 76 69 59 57 47 48 58 65 74 84 86 82 83 85 90 95 96 96 96 96
42 39 28 55 66 54 56 61 63 63 64 62 51 54 64 62 65 75 74 78 81 79 77 59 43 39 33 28 29 28 29 34 41 50 63 81 86 84 86 90 93 95 95 96
44 52 45 28 57 56 64 64 65 62 61 49 52 86 80 70 70 71 75 78 91 92 71 46 40 36 30 26 25 23 22 22 22 26 31 34 43 65 85 88 91 94 95 95
57 70 74 71 52 53 72 68 63 70 76 60 77 85 84 84 83 82 87 83 92 94 70 45 42 37 30 26 23 22 21 23 22 22 22 22 22 24 26 39 75 91 94 94
47 73 50 59 47 48 69 74 68 71 84 90 90 88 88 83 82 70 76 92 100 100 64 46 44 40 35 36 35 31 28 27 26 25 26 25 24 20 18 17 16 18 46 85
53 63 67 64 56 59 81 83 71 71 72 80 72 88 65 60 65 72 86 100 100 96 54 46 49 48 46 46 47 42 36 34 33 32 30 28 27 24 22 20 18 17 15 15
60 67 78 85 73 84 94 78 76 76 84 81 77 72 80 88 84 71 84 98 77 49 42 44 48 45 48 51 52 49 43 40 40 38 36 34 31 29 26 25 25 24 22 19
63 72 91 86 78 87 89 84 86 88 84 84 82 82 87 86 77 88 74 72 55 51 58 58 53 50 45 45 49 50 46 43 38 37 39 35 35 38 36 33 31 30 30 28
49 60 71 86 78 72 84 82 100 91 81 88 96 92 96 94 59 45 63 47 54 58 57 59 60 54 48 44 48 49 41 43 58 67 53 45 47 49 47 46 52 50 45 43
60 69 81 81 83 92 86 96 95 92 86 100 99 95 100 80 76 82 51 54 61 81 84 81 71 79 90 90 97 70 83 88 85 82 77 78 55 48 48 64 81 83 84 97
79 83 76 83 88 91 98 95 94 96 98 84 79 89 100 96 77 71 82 83 78 78 71 81 100 100 100 99 87 88 86 83 82 88 92 90 86 82 76 79 83 97 97 93
82 87 85 89 90 96 75 97 98 82 74 85 75 74 79 82 82 94 100 100 100 98 88 92 100 100 100 88 89 86 82 89 88 90 91 92 96 96 97 100 99 94 94 100
84 89 86 72 91 85 83 98 93 75 68 68 74 78 80 89 91 100 100 100 99 96 97 100 100 100 84 84 88 88 90 94 89 88 91 94 99 100 100 100 99 100 100 100
77 77 79 68 73 81 99 88 84 61 62 75 78 78 84 100 100 100 100 99 98 100 100 100 99 86 87 89 88 91 87 93 93 95 97 99 96 100 100 100 100 100 100 100
75 67 54 47 71 70 62 56 59 64 76 78 78 86 100 100 100 99 96 95 100 100 100 92 89 93 90 88 92 94 91 99 100 100 100 99 100 100 100 100 100 100 100 100
Wind_Speed
5 8 11 13 13 2 4 2 4 2 3 4 6 11 12 14 21 22 24 25 26 26 26 29 30 26 20 11 9 5 5 9 8 13 20 24 24 23 21 19 18 17 16 16
5 14 9 4 8 8 7 8 11 4 4 8 8 10 11 17 21 23 23 24 26 26 29 32 32 31 29 25 19 12 5 4 8 7 12 19 22 22 21 19 19 18 17 16
10 2 5 8 7 10 10 12 9 6 5 3 5 8 6 11 18 20 22 21 24 25 27 31 33 34 31 30 27 23 16 8 5 11 9 14 20 22 21 21 21 19 18 17
7 4 5 7 6 10 10 11 11 7 6 5 10 3 6 9 12 18 20 22 23 24 25 28 31 34 35 32 26 22 19 13 8 5 8 8 7 10 13 19 19 18 18 18
3 6 7 6 5 11 0 3 7 5 7 3 10 5 6 9 6 12 17 19 20 21 23 26 27 28 30 30 29 26 22 17 11 7 5 7 10 6 16 16 15 17 18 19
1 1 1 1 2 7 9 6 5 3 2 6 11 12 6 1 5 8 13 16 19 21 22 22 24 24 26 26 26 25 24 22 18 12 7 6 7 11 10 11 12 13 15 18
3 2 1 1 4 4 6 7 3 4 5 5 1 8 8 7 8 9 10 14 17 19 21 24 26 28 29 29 27 25 24 23 22 19 14 8 5 5 9 11 12 13 13 15
5 4 0 4 2 1 10 8 4 5 4 2 4 5 6 8 9 8 10 11 15 18 20 21 23 24 26 28 28 27 25 22 21 19 18 16 10 7 6 7 11 13 15 16
3 4 2 4 4 3 5 5 2 3 1 4 4 5 5 6 6 7 9 12 15 17 19 21 21 22 23 25 26 27 26 23 22 20 17 17 16 13 9 7 8 11 15 19
2 2 3 4 1 9 3 2 3 3 4 8 5 5 5 7 3 5 9 12 14 16 18 19 20 21 22 23 24 24 24 25 23 21 20 18 16 15 14 12 10 9 11 15
1 2 3 1 8 5 3 1 2 2 2 5 6 4 3 5 4 4 7 9 13 16 18 19 19 19 19 21 23 24 24 24 23 23 22 20 19 17 15 16 15 14 13 12
3 2 2 3 6 6 3 3 2 4 4 0 3 3 4 5 4 4 5 8 11 14 17 19 19 20 22 22 23 24 23 23 23 23 22 22 21 20 19 17 16 16 16 15
1 0 3 2 2 2 4 4 2 3 2 4 4 2 3 3 4 4 6 8 11 12 16 19 21 23 24 24 24 24 23 23 22 22 22 21 21 20 20 20 19 18 17 17
2 2 2 2 4 3 3 2 3 2 1 2 4 4 5 4 6 8 8 10 9 10 17 22 23 24 25 25 25 24 23 22 23 22 22 22 22 22 21 21 20 19 18 18
2 3 1 2 3 3 3 2 0 4 1 5 3 2 4 2 6 10 10 11 9 11 19 25 25 25 25 25 25 24 23 24 23 23 23 23 23 23 22 22 23 22 19 18
2 3 2 2 5 3 3 2 3 3 2 2 1 1 1 6 6 9 10 8 7 12 23 26 26 26 26 26 26 26 26 25 25 25 25 25 25 25 25 24 23 22 23 24
1 4 2 2 4 4 3 2 2 2 3 3 3 4 6 6 12 14 12 5 6 17 27 28 27 27 27 26 26 27 27 27 27 27 27 27 27 28 27 26 25 24 23 22
5 4 2 3 4 4 4 4 5 2 2 2 1 3 6 8 16 14 1 1 16 30 30 28 28 28 26 26 26 26 26 26 27 28 28 28 29 28 27 27 26 26 25 24
4 2 3 2 3 2 2 1 2 2 1 1 1 6 9 17 15 1 4 14 30 29 26 26 25 26 27 26 27 28 27 27 28 27 26 28 28 28 28 28 28 26 26 25
4 5 0 2 2 3 3 2 1 2 3 3 1 7 12 17 8 5 17 32 30 26 25 26 25 25 25 24 25 27 28 26 24 24 26 26 25 26 27 28 26 25 25 25
2 3 0 2 3 2 1 1 4 3 2 3 4 8 9 7 11 25 31 29 26 25 25 24 24 24 22 22 23 24 23 21 22 25 25 25 25 26 26 26 23 25 24 23
2 1 2 2 2 4 2 3 3 2 0 8 11 11 13 17 24 26 25 24 24 25 25 23 22 21 22 21 22 22 22 22 25 24 24 24 24 25 24 25 25 23 22 23
1 2 1 1 2 3 1 4 6 2 9 10 14 16 21 23 23 22 22 22 23 22 23 22 21 22 21 22 21 23 24 25 24 24 24 24 24 23 22 23 23 24 22 22
2 1 1 2 1 2 5 7 7 7 18 14 16 21 20 22 21 20 22 22 22 22 22 21 22 22 25 22 23 24 24 23 24 24 24 23 23 23 22 22 21 22 22 22
1 1 0 2 3 2 5 7 7 19 16 17 19 20 19 17 19 20 21 21 21 21 21 20 23 24 24 23 24 23 23 23 24 24 24 24 22 22 23 21 21 22 22 24
2 3 1 1 3 4 5 7 19 17 16 19 19 19 16 18 20 20 21 22 21 22 22 25 23 24 25 25 26 25 24 22 23 24 23 22 23 22 21 22 23 21 23 24
Wind_Direction
161 210 214 209 216 212 121 170 225 158 145 316 50 97 58 49 52 48 43 37 33 28 21 27 27 23 22 3 355 330 246 203 246 251 252 248 246 247 246 245 244 241 236 234
172 235 229 199 195 209 223 244 247 261 252 218 142 99 75 60 60 53 44 36 28 22 23 26 29 29 29 26 25 15 345 255 201 233 256 246 251 253 252 252 249 247 244 241
217 61 148 177 173 203 225 232 231 244 149 242 215 170 147 82 67 54 45 39 33 26 19 20 25 29 31 29 27 23 17 356 286 236 232 254 252 257 256 255 254 252 251 249
241 148 159 170 204 205 241 221 238 215 202 242 204 235 141 132 76 47 37 32 26 22 21 21 22 26 29 31 31 29 23 9 343 302 247 217 263 263 262 260 263 262 257 256
146 162 169 193 218 194 247 124 179 188 209 231 199 256 101 176 69 37 34 30 26 22 19 17 18 22 27 28 29 31 31 28 13 346 295 256 225 270 259 265 268 263 258 257
241 351 260 5 103 176 146 112 98 110 192 248 224 220 134 89 15 35 31 29 22 18 16 15 13 15 21 26 28 27 28 30 30 22 353 301 265 247 245 251 259 262 262 260
171 153 93 38 182 180 200 181 198 205 196 247 101 212 64 95 67 54 35 25 20 17 15 13 12 11 10 12 17 22 22 22 24 26 27 12 330 277 254 250 248 251 253 256
191 174 151 3 12 234 195 223 228 244 212 150 155 230 116 106 86 67 48 32 22 17 15 14 12 11 10 11 9 9 12 16 16 16 18 20 12 350 310 273 252 246 247 249
184 167 334 51 339 314 150 204 360 285 202 259 154 110 153 137 90 55 42 28 22 16 12 10 9 10 8 9 10 8 5 4 5 9 9 6 5 4 351 318 289 261 249 244
114 186 29 357 312 60 1 39 181 207 247 245 202 170 118 168 93 43 25 22 18 14 11 8 7 6 7 7 6 6 6 4 1 358 357 359 356 350 347 342 325 299 272 257
37 286 111 248 18 355 352 112 48 334 291 258 271 117 62 108 68 27 22 19 6 1 2 1 2 2 2 4 5 4 4 3 0 358 355 350 347 344 338 332 332 331 326 313
25 47 78 70 93 52 46 52 360 249 185 317 315 144 80 89 51 19 7 0 359 359 357 355 355 356 358 359 1 2 0 360 1 360 356 353 348 344 339 334 327 322 321 323
139 152 138 175 211 176 57 24 37 80 38 228 260 111 127 70 45 38 356 350 348 353 357 356 354 354 354 353 352 353 354 352 352 352 352 351 349 346 344 340 335 328 320 315
107 83 323 326 63 76 129 60 31 34 219 270 254 145 184 16 356 347 341 338 337 345 354 353 351 350 348 347 345 344 345 344 342 342 341 341 342 342 340 338 336 333 329 320
64 124 113 116 52 80 94 112 218 225 50 247 65 57 139 342 300 310 316 325 326 339 346 347 345 343 342 339 337 336 337 337 336 335 335 333 331 331 331 329 328 328 327 326
28 124 120 115 56 115 120 71 99 98 116 139 157 142 76 305 309 307 315 309 318 336 340 339 337 336 336 336 332 331 331 330 330 328 327 325 324 323 324 323 321 319 319 319
94 137 158 158 131 140 185 30 6 86 70 344 270 61 345 335 333 324 319 320 329 334 334 332 332 332 331 331 328 326 326 326 324 323 322 321 320 320 319 319 317 315 312 309
135 114 73 130 169 229 97 35 19 11 72 46 113 7 333 311 311 307 289 340 332 328 328 327 326 325 326 326 323 320 322 322 321 320 320 319 319 319 318 317 316 315 312 308
57 135 108 195 213 92 172 46 9 8 136 136 330 341 333 333 327 183 355 327 322 322 322 321 322 320 321 322 320 320 321 321 320 319 319 318 320 319 318 316 315 313 310 308
62 41 335 159 238 268 62 74 134 161 238 136 10 333 333 340 330 349 316 319 322 323 323 323 323 322 321 321 319 320 322 323 322 319 318 318 317 316 314 314 313 311 307 305
45 28 252 200 245 115 98 48 141 246 62 145 325 316 313 303 291 300 315 319 322 322 323 324 318 320 321 322 321 319 319 318 316 315 315 314 313 312 311 310 308 307 305 303
26 13 97 117 219 231 124 144 236 80 116 317 315 313 303 300 306 312 315 316 318 320 323 322 318 316 317 318 319 316 314 314 314 313 311 311 311 310 309 306 305 306 303 300
173 345 50 306 40 106 223 251 174 91 341 322 312 315 313 310 312 312 311 315 316 317 317 318 315 313 313 315 314 310 311 313 313 311 310 310 309 308 307 307 302 302 302 300
123 28 229 304 146 268 305 177 182 319 328 317 315 314 313 311 311 311 310 311 313 314 315 315 312 312 310 311 309 308 309 311 310 309 309 309 309 310 304 301 301 298 297 296
36 247 359 254 250 334 181 184 287 315 316 316 316 314 310 306 304 305 305 306 307 308 310 310 307 306 306 308 307 309 310 309 307 305 306 307 306 309 308 305 302 299 294 292
189 164 255 21 183 286 267 277 306 307 311 316 315 312 309 304 303 305 303 306 306 308 311 305 306 305 306 308 308 308 309 304 301 302 303 302 304 305 307 305 305 302 299 297